Regional Weather Roundup
Issued by NWS

Home | Current Version | Previous Version | Text Only | Print | Product List | Glossary On
Versions: 1 2 3 4 5 6 7 8 9 10 11 12 13 14 15 16 17 18 19 20 21 22 23 24 25 26 27 28 29 30 31 32 33 34 35 36 37 38 39 40 41 42 43 44 45 46 47 48 49 50
000
ASUS43 KFSD 270410
RWRSD

WEATHER ROUNDUP FOR SOUTH DAKOTA
NATIONAL WEATHER SERVICE SIOUX FALLS SD
1100 PM CDT FRI AUG 26 2016

NOTE: "FAIR" INDICATES FEW OR NO CLOUDS BELOW 12,000 FEET WITH NO
SIGNIFICANT WEATHER AND/OR OBSTRUCTIONS TO VISIBILITY.


SDZ001>005-009-010-012>017-270500-
NORTHWEST AND NORTH CENTRAL SOUTH DAKOTA

CITY           SKY/WX    TMP DP  RH WIND       PRES   REMARKS
BUFFALO          N/A     57  50  77 NE3       29.97S
FAITH            N/A     58  57  97 S7        30.02R
MOBRIDGE       CLOUDY    59  53  80 SE10      30.00F
$$

SDZ012>016-024>037-041>051-057-063-072>074-270500-
SOUTHWEST AND SOUTH CENTRAL SOUTH DAKOTA

CITY           SKY/WX    TMP DP  RH WIND       PRES   REMARKS
RAPID CTY ARPT CLOUDY    57  55  93 CALM      30.04F
PIERRE         CLOUDY    57  53  86 SE5       30.02F
CUSTER         LGT RAIN  53  46  77 VRB7      30.10F
ELLSWORTH AFB  CLOUDY    59  59 100 E2        30.04
PHILIP         CLOUDY    62  32  32 S24G37    29.98R
PINE RIDGE     CLEAR     60  55  83 S8        30.07R
WINNER         FAIR      59  56  89 SE5       30.05R
$$

SDZ004>011-016>023-039-040-270500-
NORTHEAST SOUTH DAKOTA

CITY           SKY/WX    TMP DP  RH WIND       PRES   REMARKS
ABERDEEN       CLOUDY    58  56  93 CALM      30.04S
WATERTOWN      CLOUDY    64  55  72 SE7       30.08S
BROOKINGS      CLOUDY    64  58  80 SE6       30.09S
SISSETON         N/A     61  58  90 CALM      30.05F
$$

SDZ017-020-022-023-036>040-048>070-270500-
SOUTHEAST SOUTH DAKOTA

CITY           SKY/WX    TMP DP  RH WIND       PRES   REMARKS
SIOUX FALLS    CLOUDY    66  59  78 SE12      30.08S
HURON          CLOUDY    65  57  75 SE7       30.05R
CHAMBERLAIN    CLOUDY    62  57  85 E5        30.05S
MITCHELL       CLOUDY    67  59  75 SE12G18   30.06R
YANKTON        CLOUDY    64  59  82 E10       30.05S
$$

ABBREVIATIONS USED IN REMARKS
   TC - TEMPERATURE IN CELSIUS
  WCI - WIND CHILL INDEX
   HX - HEAT INDEX
  VSB - VISIBILITY





USA.gov is the U.S. government's official web portal to all federal, state and local government web resources and services.